Temp
-28 -28 -29 -30 -29 -29 -29 -29 -29 -28 -28 -28 -28 -27 -26 -25 -24 -23 -22 -22 -21 -20 -19 -19 -18 -17 -16 -16 -16 -16 -16 -16 -16 -14 -14 -14 -14 -14 -14 -13 -13 -13 -13 -12
-28 -28 -29 -30 -30 -29 -29 -29 -29 -28 -28 -28 -28 -27 -26 -25 -24 -23 -22 -22 -22 -20 -20 -20 -19 -18 -18 -17 -17 -16 -16 -16 -16 -16 -15 -15 -14 -14 -14 -14 -14 -14 -14 -13
-28 -27 -28 -30 -30 -30 -29 -29 -28 -28 -28 -27 -27 -27 -26 -25 -23 -23 -22 -22 -22 -21 -20 -19 -19 -18 -19 -18 -17 -18 -18 -17 -16 -15 -13 -14 -14 -14 -14 -14 -14 -13 -13 -13
-27 -27 -28 -29 -30 -30 -29 -29 -28 -28 -27 -27 -27 -27 -26 -25 -25 -23 -23 -23 -21 -21 -20 -19 -19 -20 -19 -19 -18 -18 -18 -18 -17 -16 -16 -16 -15 -15 -15 -15 -14 -15 -14 -14
-27 -28 -28 -28 -30 -30 -29 -28 -28 -28 -27 -27 -27 -26 -26 -26 -24 -23 -23 -22 -21 -20 -20 -19 -18 -19 -19 -19 -19 -19 -18 -18 -17 -17 -17 -17 -16 -16 -16 -15 -15 -15 -15 -14
-26 -28 -27 -28 -29 -29 -29 -28 -27 -27 -27 -27 -26 -26 -26 -24 -23 -23 -23 -22 -22 -20 -19 -20 -20 -20 -20 -19 -18 -19 -19 -18 -18 -17 -17 -17 -18 -16 -16 -16 -16 -15 -15 -15
-25 -27 -28 -28 -28 -29 -29 -28 -27 -27 -27 -26 -26 -26 -25 -25 -23 -22 -23 -22 -20 -19 -21 -21 -21 -20 -20 -20 -20 -19 -19 -19 -19 -18 -18 -18 -17 -17 -16 -16 -16 -16 -15 -15
-23 -26 -27 -27 -28 -28 -28 -27 -27 -26 -26 -26 -26 -26 -25 -25 -22 -22 -22 -21 -20 -20 -21 -21 -21 -20 -21 -20 -20 -20 -19 -19 -19 -19 -19 -19 -18 -16 -16 -16 -16 -16 -16 -16
-22 -24 -26 -27 -27 -28 -28 -28 -26 -26 -26 -26 -26 -25 -25 -23 -23 -22 -22 -22 -21 -21 -21 -22 -21 -20 -20 -20 -20 -20 -20 -20 -20 -19 -19 -19 -17 -17 -17 -17 -17 -16 -17 -16
-21 -23 -25 -27 -27 -27 -28 -28 -27 -26 -26 -26 -26 -25 -25 -24 -23 -23 -23 -22 -21 -21 -21 -20 -20 -20 -20 -20 -19 -18 -19 -20 -20 -19 -19 -18 -17 -17 -18 -18 -17 -17 -18 -18
-20 -21 -23 -26 -27 -27 -28 -28 -27 -26 -26 -26 -26 -25 -25 -24 -23 -23 -22 -22 -21 -21 -21 -21 -20 -20 -20 -20 -20 -20 -20 -20 -20 -20 -19 -18 -18 -17 -18 -18 -19 -19 -19 -20
-19 -20 -22 -24 -26 -27 -27 -28 -28 -27 -26 -26 -26 -25 -25 -24 -23 -23 -22 -22 -22 -21 -21 -21 -21 -20 -20 -20 -20 -20 -21 -20 -20 -20 -19 -19 -19 -19 -19 -19 -19 -20 -20 -20
-19 -20 -21 -22 -25 -27 -27 -28 -28 -27 -26 -26 -26 -25 -25 -24 -24 -23 -23 -22 -22 -22 -21 -21 -21 -21 -21 -21 -21 -21 -21 -21 -21 -21 -20 -20 -20 -20 -20 -20 -20 -20 -20 -20
-19 -20 -20 -21 -24 -26 -27 -28 -28 -28 -27 -26 -26 -26 -25 -25 -24 -23 -23 -23 -22 -22 -22 -22 -22 -21 -21 -21 -21 -21 -21 -21 -21 -21 -21 -21 -20 -20 -20 -20 -20 -20 -20 -20
-19 -20 -20 -21 -23 -25 -27 -28 -28 -28 -28 -27 -26 -26 -26 -25 -25 -24 -23 -23 -23 -23 -23 -22 -22 -22 -21 -21 -22 -21 -21 -21 -21 -21 -21 -21 -21 -20 -21 -21 -21 -21 -20 -20
-19 -19 -20 -21 -22 -24 -27 -28 -28 -28 -28 -28 -27 -27 -26 -26 -25 -25 -24 -23 -23 -23 -23 -23 -22 -22 -22 -22 -22 -21 -21 -21 -21 -21 -21 -22 -21 -22 -21 -21 -21 -21 -21 -21
-19 -19 -20 -21 -22 -24 -26 -27 -28 -28 -29 -28 -28 -27 -27 -26 -26 -26 -25 -24 -24 -23 -23 -23 -23 -22 -22 -22 -22 -21 -21 -21 -22 -22 -22 -22 -22 -22 -22 -22 -21 -21 -22 -22
-19 -20 -20 -21 -22 -23 -25 -28 -29 -29 -29 -29 -29 -28 -28 -27 -27 -26 -26 -26 -25 -24 -24 -23 -23 -23 -22 -22 -22 -22 -22 -22 -22 -22 -22 -22 -22 -22 -22 -22 -22 -22 -22 -22
-20 -20 -20 -21 -22 -23 -25 -28 -29 -29 -30 -30 -30 -29 -29 -28 -28 -27 -27 -27 -26 -26 -25 -25 -24 -24 -23 -23 -23 -23 -22 -22 -22 -22 -22 -22 -23 -23 -22 -22 -22 -22 -22 -22
-20 -21 -21 -21 -22 -24 -25 -27 -29 -30 -30 -30 -30 -30 -29 -29 -29 -28 -28 -27 -27 -27 -26 -26 -26 -25 -25 -25 -24 -24 -24 -23 -23 -23 -23 -23 -24 -23 -23 -24 -24 -24 -25 -25
-20 -20 -21 -21 -22 -24 -26 -27 -29 -30 -31 -31 -31 -31 -30 -30 -29 -29 -29 -28 -28 -27 -27 -27 -26 -26 -26 -26 -26 -26 -26 -26 -26 -26 -26 -26 -26 -26 -26 -26 -26 -26 -26 -26
-21 -21 -22 -22 -23 -24 -26 -27 -29 -31 -31 -32 -31 -31 -31 -31 -30 -30 -29 -29 -29 -29 -28 -28 -27 -27 -27 -27 -27 -27 -27 -27 -27 -27 -27 -27 -27 -27 -27 -27 -27 -27 -27 -28
-22 -22 -22 -22 -23 -25 -27 -28 -29 -31 -32 -32 -32 -32 -32 -32 -31 -31 -30 -30 -30 -29 -29 -29 -28 -28 -28 -28 -27 -27 -27 -27 -27 -27 -27 -27 -27 -27 -27 -27 -27 -28 -28 -28
-22 -22 -22 -23 -24 -25 -27 -28 -29 -31 -32 -33 -33 -33 -33 -32 -32 -32 -32 -31 -31 -30 -30 -30 -29 -29 -29 -29 -29 -28 -28 -28 -28 -28 -28 -28 -28 -28 -28 -29 -29 -29 -29 -29
-23 -23 -24 -24 -25 -26 -27 -28 -30 -31 -32 -33 -34 -34 -34 -34 -33 -33 -33 -33 -32 -31 -31 -31 -30 -30 -30 -30 -30 -30 -30 -30 -30 -30 -30 -30 -30 -30 -30 -30 -30 -30 -29 -29
-24 -24 -24 -25 -26 -27 -28 -29 -30 -31 -32 -33 -34 -34 -35 -35 -34 -34 -34 -33 -33 -33 -32 -32 -31 -31 -31 -31 -31 -31 -31 -31 -31 -30 -30 -30 -30 -30 -30 -30 -30 -30 -30 -30
-24 -25 -25 -26 -27 -27 -28 -30 -31 -32 -33 -33 -34 -35 -35 -36 -35 -35 -34 -34 -34 -34 -33 -33 -33 -32 -32 -32 -32 -32 -32 -31 -31 -31 -31 -31 -31 -31 -31 -31 -31 -31 -32 -32
Height
5493 5486 5479 5478 5477 5478 5478 5479 5479 5477 5475 5473 5471 5476 5480 5484 5489 5499 5509 5517 5525 5536 5551 5561 5577 5591 5607 5622 5632 5638 5645 5651 5660 5673 5679 5687 5694 5701 5708 5708 5710 5714 5720 5726
5489 5482 5475 5472 5472 5474 5474 5474 5474 5474 5471 5472 5471 5469 5473 5477 5485 5493 5502 5511 5521 5532 5544 5553 5566 5582 5600 5611 5624 5628 5637 5641 5648 5657 5667 5675 5679 5686 5692 5695 5699 5703 5710 5715
5486 5479 5472 5469 5468 5469 5470 5469 5469 5470 5469 5467 5467 5466 5467 5471 5480 5488 5496 5506 5514 5527 5536 5547 5559 5569 5586 5598 5612 5623 5630 5635 5641 5650 5665 5668 5672 5679 5684 5688 5690 5699 5701 5710
5483 5477 5470 5467 5466 5465 5467 5465 5465 5465 5465 5464 5461 5459 5463 5465 5473 5484 5490 5498 5508 5521 5530 5540 5550 5560 5573 5584 5596 5605 5614 5620 5632 5641 5647 5652 5661 5667 5671 5674 5685 5683 5696 5695
5482 5476 5470 5466 5464 5463 5463 5462 5461 5462 5462 5462 5461 5457 5456 5457 5466 5475 5485 5495 5508 5518 5527 5539 5553 5559 5565 5575 5585 5593 5602 5610 5620 5625 5633 5639 5645 5651 5657 5663 5670 5671 5676 5678
5480 5475 5469 5464 5462 5461 5461 5460 5458 5458 5458 5458 5456 5454 5450 5454 5462 5471 5480 5493 5498 5512 5528 5534 5541 5549 5558 5568 5578 5585 5594 5603 5610 5615 5622 5626 5624 5639 5647 5654 5657 5663 5662 5673
5480 5473 5468 5463 5460 5460 5460 5458 5457 5456 5456 5454 5451 5448 5445 5447 5456 5469 5478 5485 5494 5510 5516 5524 5530 5536 5545 5551 5559 5570 5580 5591 5597 5603 5605 5602 5619 5628 5634 5640 5646 5648 5653 5658
5482 5472 5467 5462 5458 5456 5456 5455 5454 5453 5453 5450 5449 5444 5441 5445 5455 5467 5475 5484 5492 5500 5505 5513 5519 5526 5534 5542 5551 5560 5568 5576 5580 5583 5587 5593 5600 5613 5623 5627 5635 5639 5641 5644
5483 5472 5464 5460 5456 5452 5450 5451 5451 5450 5450 5448 5445 5442 5440 5445 5450 5461 5471 5478 5484 5492 5500 5503 5508 5516 5527 5533 5543 5552 5560 5565 5570 5571 5574 5578 5598 5606 5611 5614 5615 5628 5629 5632
5487 5473 5463 5458 5453 5450 5447 5446 5447 5448 5447 5446 5444 5441 5440 5444 5450 5457 5466 5471 5479 5486 5493 5499 5506 5513 5521 5527 5535 5542 5547 5552 5555 5561 5566 5575 5586 5591 5594 5594 5611 5612 5614 5617
5491 5476 5463 5456 5452 5448 5444 5443 5443 5444 5445 5444 5442 5441 5440 5442 5446 5454 5462 5469 5474 5482 5487 5493 5500 5510 5515 5522 5528 5533 5539 5541 5546 5554 5558 5567 5574 5575 5579 5587 5592 5596 5598 5601
5494 5479 5465 5454 5449 5445 5440 5436 5437 5440 5442 5443 5441 5440 5439 5441 5445 5451 5457 5463 5469 5476 5482 5488 5495 5502 5508 5515 5518 5523 5527 5532 5539 5546 5553 5558 5562 5565 5567 5571 5575 5579 5583 5585
5496 5481 5466 5454 5447 5443 5438 5434 5434 5436 5438 5440 5441 5440 5441 5441 5443 5447 5454 5460 5466 5471 5478 5484 5488 5495 5502 5505 5510 5514 5517 5523 5527 5534 5540 5545 5548 5553 5557 5559 5562 5565 5568 5570
5498 5482 5467 5455 5446 5440 5436 5433 5432 5432 5434 5436 5439 5439 5439 5439 5440 5443 5449 5455 5459 5465 5472 5477 5481 5487 5492 5497 5500 5505 5510 5514 5519 5524 5530 5534 5537 5540 5543 5546 5549 5551 5553 5554
5499 5485 5470 5456 5445 5438 5433 5431 5429 5429 5432 5432 5434 5436 5437 5437 5438 5440 5444 5448 5453 5457 5462 5466 5472 5477 5483 5488 5492 5495 5501 5506 5509 5516 5520 5524 5526 5527 5529 5533 5535 5537 5540 5542
5501 5487 5472 5457 5445 5437 5431 5429 5427 5426 5427 5429 5430 5432 5433 5435 5435 5436 5439 5442 5446 5450 5454 5458 5462 5467 5473 5477 5483 5488 5492 5496 5500 5505 5508 5512 5516 5519 5520 5522 5524 5526 5529 5530
5501 5486 5474 5459 5445 5436 5429 5426 5425 5424 5423 5425 5427 5428 5429 5431 5433 5434 5435 5437 5440 5443 5446 5451 5454 5459 5462 5466 5471 5477 5482 5486 5490 5494 5498 5502 5504 5507 5508 5510 5513 5515 5517 5519
5501 5486 5472 5460 5446 5434 5426 5422 5421 5420 5420 5421 5422 5424 5426 5426 5428 5430 5432 5433 5434 5436 5439 5442 5445 5449 5452 5456 5462 5467 5472 5476 5479 5483 5487 5490 5491 5492 5496 5498 5500 5501 5503 5506
5497 5483 5471 5461 5447 5433 5425 5418 5417 5416 5418 5416 5416 5418 5420 5421 5423 5425 5427 5428 5430 5432 5433 5435 5438 5440 5443 5448 5451 5456 5460 5464 5468 5471 5474 5477 5478 5480 5482 5484 5486 5489 5491 5493
5495 5481 5470 5458 5446 5432 5422 5416 5413 5412 5412 5411 5411 5412 5414 5416 5417 5419 5422 5423 5425 5427 5429 5431 5432 5432 5435 5438 5441 5444 5448 5451 5455 5458 5461 5464 5466 5468 5470 5471 5474 5477 5479 5482
5495 5479 5467 5455 5443 5432 5421 5415 5410 5407 5407 5406 5406 5406 5407 5409 5411 5412 5414 5416 5418 5420 5424 5427 5428 5430 5432 5434 5436 5439 5441 5443 5445 5449 5452 5455 5458 5461 5462 5463 5466 5468 5471 5472
5486 5473 5461 5450 5440 5428 5418 5410 5405 5401 5400 5399 5399 5399 5400 5401 5403 5404 5407 5408 5410 5413 5417 5419 5421 5424 5427 5429 5432 5435 5438 5439 5441 5444 5447 5448 5451 5454 5455 5456 5457 5459 5460 5461
5480 5469 5457 5446 5436 5426 5414 5406 5398 5394 5392 5391 5390 5391 5392 5392 5394 5396 5398 5399 5402 5404 5407 5410 5413 5416 5419 5421 5424 5427 5429 5431 5434 5436 5439 5440 5443 5445 5446 5447 5448 5449 5450 5451
5474 5463 5449 5438 5425 5417 5409 5400 5393 5388 5383 5381 5381 5382 5383 5383 5384 5386 5387 5389 5392 5394 5398 5401 5404 5407 5410 5413 5415 5417 5420 5422 5424 5426 5429 5431 5432 5434 5435 5436 5437 5438 5439 5439
5465 5453 5441 5430 5420 5413 5404 5395 5386 5380 5376 5372 5371 5372 5374 5375 5376 5377 5378 5379 5380 5384 5389 5392 5395 5398 5401 5403 5406 5408 5410 5412 5414 5416 5418 5420 5421 5422 5424 5425 5426 5426 5426 5426
5459 5448 5436 5424 5414 5406 5396 5386 5378 5372 5368 5364 5363 5362 5364 5366 5367 5369 5370 5371 5372 5375 5377 5381 5384 5387 5391 5394 5397 5399 5401 5403 5405 5406 5408 5409 5410 5411 5411 5412 5412 5412 5411 5410
5451 5441 5431 5420 5408 5400 5391 5382 5372 5365 5360 5357 5354 5354 5354 5356 5358 5361 5363 5364 5366 5367 5369 5371 5374 5376 5379 5382 5385 5388 5390 5392 5393 5395 5396 5397 5397 5398 5398 5398 5398 5397 5396 5395
Wind_Speed
36 39 23 17 15 12 12 14 15 16 15 13 15 20 43 55 49 43 39 46 51 64 58 69 85 86 82 76 72 71 66 66 67 66 65 62 60 57 54 57 59 57 54 52
35 41 28 13 13 13 12 12 13 13 10 10 13 16 35 45 56 42 42 43 51 57 61 52 68 82 77 74 70 71 69 67 64 64 65 63 64 63 61 60 56 56 52 54
34 41 33 12 11 9 11 13 13 12 8 10 13 14 20 45 58 39 41 45 50 57 53 55 55 69 75 74 71 66 63 65 69 69 66 65 65 64 60 58 58 59 59 54
34 38 36 13 11 9 11 10 12 6 9 4 10 19 15 22 50 46 44 45 56 56 47 51 53 58 73 69 70 71 68 68 66 65 64 63 62 61 59 59 58 59 57 57
36 33 35 20 10 10 11 8 10 7 6 7 12 19 23 20 47 53 50 42 55 59 56 46 37 46 58 71 61 62 68 70 68 67 65 65 65 64 62 62 60 61 63 64
41 31 33 26 12 6 6 6 8 5 7 9 11 13 21 42 49 52 39 52 51 53 48 49 48 44 44 49 63 62 56 68 67 67 67 66 69 67 66 64 63 62 65 62
51 33 29 29 18 9 6 6 8 9 7 10 13 18 21 26 47 53 38 44 59 52 47 46 49 52 48 47 50 57 45 49 51 59 65 68 69 66 65 65 65 66 65 64
59 43 27 27 22 13 10 8 8 9 6 10 12 15 20 25 39 49 39 50 55 54 48 49 51 56 57 56 52 47 50 57 57 56 58 61 70 74 72 75 73 70 71 68
64 52 34 23 25 18 11 12 12 10 7 8 12 10 11 29 28 46 37 43 51 51 49 38 46 53 53 52 48 54 52 54 57 58 62 69 67 65 63 67 71 66 68 64
68 61 45 29 23 20 15 11 14 13 9 9 11 12 10 32 28 29 33 33 42 47 46 44 44 49 49 50 48 48 47 55 60 59 57 55 52 53 57 60 57 58 59 59
71 65 56 39 25 21 19 13 15 15 11 9 8 10 3 26 29 33 33 30 35 47 47 43 44 40 42 43 45 47 49 58 59 58 59 46 38 45 52 51 46 48 45 44
73 68 62 49 33 22 23 17 12 17 15 10 9 7 5 13 25 30 39 39 36 43 44 42 39 38 36 37 40 40 45 48 49 53 49 42 42 44 42 41 41 42 44 48
75 71 65 56 42 26 20 14 9 18 17 15 10 9 6 10 21 32 30 37 39 40 43 45 39 39 37 33 31 31 36 39 43 41 37 36 38 42 44 45 47 50 51 50
75 72 65 58 48 33 18 16 11 16 20 19 15 11 10 9 15 27 35 36 35 37 39 39 38 42 40 35 33 31 28 27 29 31 29 31 35 40 44 45 48 48 50 51
74 74 68 60 50 38 22 15 13 13 20 21 19 17 15 12 13 21 30 35 43 40 40 36 35 46 45 41 37 37 36 33 36 34 32 31 32 35 39 42 42 45 45 45
74 75 71 63 53 42 26 15 14 11 17 22 20 18 17 16 15 17 21 32 32 34 35 35 33 33 40 45 41 39 39 35 35 37 36 34 31 31 36 40 39 41 43 46
73 75 73 65 55 43 30 20 15 12 14 22 23 21 19 18 17 17 18 23 31 36 37 38 39 40 40 37 39 40 40 39 39 38 36 38 39 40 40 42 44 43 46 42
73 74 74 69 56 45 34 21 15 13 13 19 23 24 22 20 19 18 17 17 21 26 34 42 45 45 45 46 43 43 45 45 44 42 41 42 43 44 44 44 44 45 44 45
72 73 74 69 59 48 36 25 15 15 14 16 20 23 24 23 21 22 20 19 18 18 18 24 31 37 43 46 48 47 47 48 47 48 48 46 44 45 45 46 47 48 48 48
71 73 74 72 63 53 39 28 17 16 18 17 19 21 22 24 24 22 22 23 23 21 20 18 16 18 22 25 31 34 37 40 42 43 44 41 42 42 43 44 45 45 45 44
70 74 75 74 66 55 43 31 23 18 19 20 21 22 23 24 23 23 25 23 23 24 23 21 21 20 17 17 18 19 22 25 27 30 34 36 37 37 36 36 36 34 33 30
71 74 74 73 69 59 47 35 27 21 19 22 22 24 25 27 26 24 25 25 27 26 24 23 22 22 22 22 22 22 23 25 27 28 29 31 32 31 30 28 28 27 27 28
69 73 74 75 72 59 49 38 30 25 22 22 24 24 24 26 29 30 27 26 27 27 28 28 27 25 26 26 26 27 27 28 28 30 31 31 32 33 33 33 34 34 35 36
67 73 74 74 72 65 54 41 34 29 24 22 23 26 24 24 24 28 29 30 30 28 28 27 27 28 29 29 29 29 29 30 31 32 33 33 33 34 35 36 37 37 38 39
66 73 73 72 69 64 57 45 36 30 26 22 22 23 26 25 23 23 25 27 31 32 31 30 29 27 27 27 28 29 30 30 31 32 33 34 35 36 37 38 39 41 43 45
65 71 73 70 67 63 57 49 40 33 27 24 20 22 26 25 24 22 21 23 24 26 29 31 33 34 33 33 33 33 34 35 35 36 38 39 40 41 42 44 46 47 48 49
65 69 73 70 67 62 57 50 40 34 28 24 21 19 23 26 28 26 21 20 19 20 21 21 23 27 30 33 34 35 36 38 38 40 41 42 44 45 46 47 47 46 45 44
Wind_Direction
345 344 324 295 280 282 283 282 280 279 299 301 290 264 234 219 209 200 195 194 216 219 218 217 216 217 219 218 216 217 216 219 222 223 224 225 226 227 231 237 239 241 247 250
346 347 339 301 281 278 273 282 272 263 290 255 250 260 239 235 213 203 193 199 210 218 219 218 217 216 217 220 221 220 219 221 222 222 222 223 226 227 229 233 236 238 244 249
344 350 348 306 295 280 284 281 255 251 235 243 248 273 254 236 215 199 196 198 210 212 216 217 216 216 216 220 220 223 225 228 229 229 231 230 229 229 231 234 238 242 246 252
350 354 354 331 308 278 296 284 248 232 244 281 275 269 270 246 229 205 192 200 210 207 211 211 215 214 216 218 221 223 225 228 227 229 229 231 231 233 234 236 239 244 247 250
354 355 359 345 316 289 292 294 234 242 253 297 289 290 263 227 222 205 204 198 214 218 215 217 220 221 215 219 216 222 225 228 229 231 232 234 235 233 235 237 239 243 245 249
1 352 358 354 322 287 277 271 268 274 278 305 304 290 270 217 213 209 200 203 209 219 216 218 221 223 222 224 224 223 228 229 230 234 236 239 240 238 240 241 244 246 248 252
4 355 353 356 347 304 264 258 264 273 264 303 318 307 254 220 222 219 204 207 205 209 214 214 217 219 217 207 210 210 201 212 221 229 235 238 241 240 242 244 244 247 249 253
3 2 349 352 351 329 271 252 264 282 281 304 319 298 262 202 211 209 208 211 207 208 211 213 215 220 220 219 216 211 215 220 222 218 223 232 235 240 242 247 249 251 254 256
3 3 357 342 348 341 301 253 258 272 288 308 331 323 245 184 198 208 203 205 205 208 207 202 211 217 218 220 221 223 225 228 227 230 229 235 241 244 247 250 251 254 253 251
3 3 1 349 338 343 333 273 250 258 292 305 327 339 192 188 195 209 215 216 211 208 210 210 214 218 218 219 222 223 227 224 224 227 230 237 239 238 244 246 246 246 249 252
6 3 1 356 339 338 335 314 242 245 261 293 313 337 259 186 187 197 209 206 211 212 215 211 215 219 224 225 225 225 226 225 225 227 232 243 240 245 248 248 247 248 247 247
8 6 2 358 350 335 336 324 245 230 239 260 285 309 285 190 186 187 200 208 214 221 219 213 217 220 226 230 233 232 231 229 230 234 240 240 247 248 249 245 244 246 249 250
9 8 5 359 353 343 340 338 262 222 228 241 253 266 275 217 197 194 201 201 208 213 219 222 223 228 230 227 229 234 233 235 238 241 239 235 233 236 244 245 248 251 252 250
7 8 7 3 355 347 335 339 296 238 223 229 237 247 249 242 216 196 205 205 215 217 215 219 226 230 230 235 239 232 231 233 227 230 231 238 242 246 246 247 249 251 252 250
7 7 6 5 359 348 338 327 318 262 230 225 227 244 247 246 231 216 205 206 210 217 225 227 226 224 228 232 235 240 228 237 238 233 237 243 246 248 247 247 249 249 246 250
7 6 6 7 3 351 344 323 322 275 239 226 228 230 237 245 244 234 222 215 213 213 218 219 217 221 226 230 233 234 235 233 231 237 236 235 240 248 243 242 243 249 252 253
5 6 4 6 6 356 345 328 309 297 247 230 229 229 233 239 244 244 237 226 224 220 219 223 219 216 219 219 221 227 233 234 232 231 233 237 243 250 244 244 247 248 250 247
4 5 4 4 5 1 348 331 305 293 263 241 236 232 228 234 240 244 245 244 236 230 227 227 226 228 232 235 235 230 234 235 236 239 241 244 245 245 244 247 250 252 251 250
3 4 3 1 3 3 353 338 307 280 275 255 242 238 237 234 232 236 240 239 237 237 237 231 229 231 233 235 237 237 238 240 244 244 244 243 242 243 245 248 248 247 247 253
1 2 1 360 1 2 356 344 317 279 266 259 244 238 241 240 239 238 236 235 236 232 231 230 235 236 232 231 231 232 234 237 238 241 241 239 238 239 239 237 237 237 237 237
358 1 1 360 359 0 0 349 329 298 269 261 253 243 237 241 238 237 238 236 236 235 232 231 228 227 226 225 223 222 220 216 215 215 212 213 215 218 223 226 230 232 235 239
358 359 359 358 358 359 359 352 337 312 281 265 258 252 247 242 237 234 233 235 236 238 236 234 231 228 225 221 217 215 215 216 217 218 220 222 225 228 231 236 239 251 257 263
354 357 357 358 358 357 356 351 338 319 299 274 263 258 254 247 244 242 239 235 233 236 237 236 235 234 232 228 225 225 225 225 226 229 231 234 237 243 248 252 255 257 260 262
352 354 356 358 356 354 352 350 341 327 309 287 268 258 256 253 250 246 244 243 238 234 232 232 231 230 230 232 233 233 232 232 234 236 238 240 243 245 248 251 254 257 261 265
350 352 355 355 354 351 349 348 342 331 317 301 281 263 254 252 254 251 249 247 243 241 236 232 229 226 224 224 226 229 232 234 236 237 239 242 245 248 251 254 259 263 268 272
347 351 353 353 352 350 347 345 342 335 322 309 293 268 252 245 247 247 250 251 249 246 241 237 236 232 229 227 227 228 231 234 237 241 244 248 252 255 260 263 266 269 271 274
345 349 351 351 350 348 346 344 339 332 323 313 301 280 257 250 246 246 248 249 248 246 242 236 233 233 236 238 238 238 240 241 244 246 249 252 255 258 260 263 265 268 269 270